Regional Weather Roundup
Issued by NWS

Home | Current Version | Previous Version | Text Only | Print | Product List | Glossary On
Versions: 1 2 3 4 5 6 7 8 9 10 11 12 13 14 15 16 17 18 19 20 21 22 23 24 25 26 27 28 29 30 31 32 33 34 35 36 37 38 39 40 41 42 43 44 45 46 47 48 49 50
000
ASUS44 KLIX 270713
RWRLA
LOUISIANA WEATHER ROUNDUP
NATIONAL WEATHER SERVICE NEW ORLEANS LA
200 AM CDT THU APR 27 2017

NOTE: "FAIR" INDICATES FEW OR NO CLOUDS BELOW 12,000 FEET WITH NO
      SIGNIFICANT WEATHER AND/OR OBSTRUCTIONS TO VISIBILITY.
      SKY/WX - SKY CONDITION AND SIGNIFICANT WEATHER.
      TMP - AIR TEMPERATURE.    DP   - DEWPOINT TEMPERATURE.
      RH  - RELATIVE HUMIDITY.  PRES - PRESSURE.
      HX  - HEAT INDEX.         WCI  - WIND CHILL INDEX.

*  THESE STATIONS ARE NOT NWS OR FAA STATIONS AND ARE NOT UNDER
   NWS QUALITY CONTROL.

LAZ040-048-061>063-065-066-069-270800-
SOUTHEAST LOUISIANA

CITY           SKY/WX    TMP DP  RH WIND       PRES   REMARKS
N.O. INTL ARPT CLOUDY    76  73  91 SW8       29.69F
N.O. LAKEFRONT LGT RAIN  77  74  90 SW13      29.70S
N.O. DOWNTOWN* NOT AVBL
RESERVE*       NOT AVBL
SLIDELL        CLOUDY    77  73  87 SW8       29.69S
BATON ROUGE    MOCLDY    66  60  81 NW7       29.73R
BOOTHVILLE     CLOUDY    75  74  96 S10       29.73S
BELLE CHASSE   CLOUDY   N/A N/A N/A SW13      29.69F
BOGALUSA*      NOT AVBL
GALLIANO*      CLOUDY    76  72  85 S13       29.71S
NEW ROADS*     CLOUDY    64  60  87 NW13G20   29.74R
GONZALES*      FAIR      69  56  64 NW3       29.71S
HAMMOND*       CLOUDY    68  59  73 CALM      29.71S
HOUMA*         CLOUDY    76  73  91 SW7       29.70S
PORT FOURCHON* CLOUDY    77  73  88 SW12      29.72S FOG

$$

LAZ041-044-053-054-270800-
SOUTHWEST LOUISIANA

CITY           SKY/WX    TMP DP  RH WIND       PRES   REMARKS
LAKE CHARLES   PTCLDY    59  54  83 N14       29.77R
LAFAYETTE      MOCLDY    70  62  76 NW10      29.74R
PATTERSON      MOCLDY    70  57  63 N5        29.73S
SALT POINT       N/A     71  57  61 VRB5        N/A
NEW IBERIA     CLOUDY    68  60  75 NW9       29.74R
CHENAULT AIRPK MOCLDY    57  55  91 N9        29.78R

$$

LAZ027-028-270800-
CENTRAL LOUISIANA

CITY           SKY/WX    TMP DP  RH WIND       PRES   REMARKS
FORT POLK      CLOUDY    57  53  88 NW8       29.78R
ALEXANDRIA INT CLOUDY    57  51  80 NW18G24   29.76R
ALEXANDRIA     CLOUDY    58  53  84 NW10      29.76R

$$

LAZ001-002-270800-
NORTHWEST LOUISIANA

CITY           SKY/WX    TMP DP  RH WIND       PRES   REMARKS
SHREVEPORT     PTCLDY    53  48  83 NW9       29.78S
BARKSDALE AFB  CLEAR     53  47  79 NW9       29.78R
DTN SHREVEPORT CLEAR     54  47  77 NW7       29.79S

$$

LAZ014-016-270800-
NORTHEAST LOUISIANA

CITY           SKY/WX    TMP DP  RH WIND       PRES   REMARKS
MONROE         CLOUDY    55  49  80 W13       29.76S
TALLULAH       LGT RAIN  60  57  89 W9G20     29.72R

$$




USA.gov is the U.S. government's official web portal to all federal, state and local government web resources and services.